Showing default

COSMOS 87, 1585

Orbit data source: Space-Track

COSMOS 87, 1585 is a payload satellite owned by OKB-10 (CIS) in LEO that was launched on Sat, 18 Sep 1965 UTC via a KOSMOS 65S3 launch vehicle from the Tyuratam Missile And Space Complex (TTMTR). Payload-class satellites include a variety of spacecraft equipped with specific instruments for various scientific and technological missions. These include communications satellites like Starlink; space stations such as the ISS; scientific satellites like the Hubble; Earth observation satellites from companies like Planet Labs, Umbra, and HawkEye 360; GPS; miniature CubeSats for education and research; and military/defense satellites.

Loading next visibility...
Identifier
1585, 1965-073B
Orbit
LEO
Country
Flag of CISCIS
Related business
Manufacturer
OKB-10
Mission
Spacecraft
Bus & Motor
STRELA-1 11F610, Unknown motor
Mass
50 kg wet, 50 kg dry
Launch date (UTC)
1965-09-18 (60 years ago)
Launch vehicle
KOSMOS 65S3
Launch site
Tyuratam Missile And Space Complex (TTMTR)
Object type
Payload
Rocket body
Debris
Shape & HBR
Unknown
Radar Cross Section
Medium (>0.1 m² and <1 m²)

Expand to show TLE details & history
Last TLE update: 1 day ago

TLE from 1 day ago
0 COSMOS 87
1 01585U 65073B   25303.03880432 -.00000075  00000-0  13266-3 0  9995
2 01585  56.0592 182.3228 0206130  78.3023  35.7562 12.47460350737039
Epoch: 2025-10-30T00:55Z
TLE epoch observation values (Epoch: 2025-10-30T00:55:52.693Z)
Latitude
48.63057°
Longitude
-99.74792°
Altitude
1,350.825 km
Speed
7.247 km/s
True Right ascension
20h 51m 17s
True Declination
48° 28' 23"
Sunlit
Object was in daylight at epoch
Visualization orbit readout
Latitude
Unknown
Longitude
Unknown
Altitude
Unknown
Speed
Unknown
Apparent Right ascension
Unknown
Apparent Declination
Unknown
Sunlit
N/A
Visualization observer readout
Local Sidereal Time
21:46:21
Azimuth
Unknown
Elevation
Unknown
Doppler factor
Unknown
Orbital elements
Apogee altitude
1,636.835 km
Perigee altitude
1,313.083 km
Semi-major axis
7,853.096 km
Eccentricity
0.02061
Inclination
56.0592°
RAAN
182.3228°
Arg. of periapsis
78.3023°
True anomaly
37.16576°
Mean anomaly
35.7562°
Eccentric anomaly
36.45801°
Mean motion
3.11876 °/min
Orbital period
115.43 mins
BSTAR
0.00013266
Loading maneuver chart data...
Computing Atmospheric mass density...
Loading historical data...
Loading historical data...
Loading historical data...
Loading historical data...
Loading historical data...
Loading historical data...
Loading historical data...

Documentation

Showing up to 5 results
|